| time (UTC) | temp C | wind direction | speed KPH | gust KPH | rain 1hr cm | rain 24hr cm | rain mn cm | humidity % | barometer mb |
| 20260504041553 | 12 | 0 | 0.0 | 0.0 | 0.00 | 0.00 | 0.00 | 60 | 1018.0 |
| 20260504040107 | 12 | 0 | 0.0 | 0.0 | 0.00 | 0.00 | 0.00 | 61 | 1018.0 |
| 20260504034610 | 13 | 0 | 0.0 | 0.0 | 0.00 | 0.00 | 0.00 | 61 | 1017.9 |
| 20260504033054 | 13 | 0 | 0.0 | 0.0 | 0.00 | 0.00 | 0.00 | 62 | 1017.8 |
| 20260504031552 | 13 | 0 | 0.0 | 0.0 | 0.00 | 0.00 | 0.00 | 61 | 1017.9 |
| 20260504030119 | 13 | 349 | 0.0 | 1.6 | 0.00 | 0.00 | 0.00 | 60 | 1017.9 |
| 20260504024555 | 13 | 0 | 0.0 | 3.2 | 0.00 | 0.00 | 0.00 | 60 | 1017.6 |
| 20260504023051 | 14 | 0 | 0.0 | 0.0 | 0.00 | 0.00 | 0.00 | 59 | 1017.5 |
| 20260504021554 | 15 | 0 | 0.0 | 3.2 | 0.00 | 0.00 | 0.00 | 57 | 1017.5 |
| 20260504020100 | 15 | 0 | 0.0 | 3.2 | 0.00 | 0.00 | 0.00 | 57 | 1017.6 |
| 20260504014555 | 15 | 0 | 0.0 | 1.6 | 0.00 | 0.00 | 0.00 | 56 | 1017.5 |
| 20260504013053 | 16 | 0 | 0.0 | 3.2 | 0.00 | 0.00 | 0.00 | 55 | 1017.4 |
| 20260504011550 | 16 | 0 | 0.0 | 3.2 | 0.00 | 0.00 | 0.00 | 54 | 1017.1 |
| 20260504010051 | 16 | 0 | 0.0 | 1.6 | 0.00 | 0.00 | 0.00 | 51 | 1017.0 |
| 20260504004551 | 17 | 56 | 0.0 | 1.6 | 0.00 | 0.00 | 0.00 | 49 | 1016.9 |
| 20260504003048 | 17 | 0 | 0.0 | 1.6 | 0.00 | 0.00 | 0.00 | 48 | 1016.8 |
| 20260504001604 | 17 | 0 | 0.0 | 3.2 | 0.00 | 0.00 | 0.00 | 47 | 1016.8 |
| 20260504000057 | 17 | 0 | 0.0 | 3.2 | 0.00 | 0.00 | 0.00 | 47 | 1016.9 |
| 20260503234550 | 18 | 0 | 0.0 | 3.2 | 0.00 | 0.00 | 0.00 | 47 | 1017.0 |
| 20260503233049 | 18 | 360 | 0.0 | 3.2 | 0.00 | 0.00 | 0.00 | 48 | 1017.0 |
| 20260503231556 | 18 | 0 | 0.0 | 4.8 | 0.00 | 0.00 | 0.00 | 48 | 1017.1 |
| 20260503230052 | 18 | 0 | 0.0 | 3.2 | 0.00 | 0.00 | 0.00 | 47 | 1017.2 |
| 20260503224547 | 18 | 80 | 1.6 | 4.8 | 0.00 | 0.00 | 0.00 | 48 | 1017.3 |
| 20260503223051 | 19 | 0 | 0.0 | 4.8 | 0.00 | 0.00 | 0.00 | 47 | 1017.4 |
| 20260503221550 | 19 | 87 | 0.0 | 4.8 | 0.00 | 0.00 | 0.00 | 45 | 1017.3 |
| 20260503220053 | 19 | 314 | 1.6 | 4.8 | 0.00 | 0.00 | 0.00 | 44 | 1017.3 |
| 20260503214601 | 19 | 102 | 0.0 | 4.8 | 0.00 | 0.00 | 0.00 | 44 | 1017.3 |
| 20260503213053 | 19 | 113 | 0.0 | 9.7 | 0.00 | 0.00 | 0.00 | 44 | 1017.6 |
| 20260503211557 | 19 | 286 | 0.0 | 4.8 | 0.00 | 0.00 | 0.00 | 44 | 1017.9 |
| 20260503210054 | 20 | 325 | 1.6 | 6.4 | 0.00 | 0.00 | 0.00 | 45 | 1018.1 |
| 20260503204602 | 20 | 342 | 1.6 | 6.4 | 0.00 | 0.00 | 0.00 | 45 | 1018.4 |
| 20260503203054 | 20 | 127 | 1.6 | 4.8 | 0.00 | 0.00 | 0.00 | 41 | 1018.4 |
| 20260503201552 | 20 | 289 | 1.6 | 6.4 | 0.00 | 0.00 | 0.00 | 41 | 1018.7 |
| 20260503200055 | 20 | 268 | 1.6 | 4.8 | 0.00 | 0.00 | 0.00 | 41 | 1018.9 |
| 20260503194553 | 20 | 67 | 1.6 | 6.4 | 0.00 | 0.00 | 0.00 | 37 | 1018.9 |
| 20260503193107 | 20 | 0 | 1.6 | 6.4 | 0.00 | 0.00 | 0.00 | 44 | 1019.3 |
| 20260503191553 | 20 | 302 | 1.6 | 4.8 | 0.00 | 0.00 | 0.00 | 45 | 1019.5 |
| 20260503190105 | 20 | 340 | 1.6 | 6.4 | 0.00 | 0.00 | 0.00 | 42 | 1019.6 |
| 20260503184548 | 20 | 37 | 1.6 | 6.4 | 0.00 | 0.00 | 0.00 | 45 | 1019.8 |
| 20260503183102 | 19 | 111 | 3.2 | 9.7 | 0.00 | 0.00 | 0.00 | 45 | 1019.9 |
| 20260503181552 | 18 | 298 | 3.2 | 8.0 | 0.00 | 0.00 | 0.00 | 53 | 1020.1 |
| 20260503180058 | 18 | 254 | 1.6 | 8.0 | 0.00 | 0.00 | 0.00 | 48 | 1020.3 |
| 20260503174557 | 17 | 5 | 1.6 | 11.3 | 0.00 | 0.00 | 0.00 | 52 | 1020.5 |
| 20260503173110 | 17 | 311 | 3.2 | 12.9 | 0.00 | 0.00 | 0.00 | 56 | 1020.9 |
| 20260503171555 | 16 | 117 | 3.2 | 14.5 | 0.00 | 0.00 | 0.00 | 52 | 1021.0 |
| 20260503140104 | 13 | 328 | 4.8 | 9.7 | 0.00 | 0.00 | 0.00 | 67 | 1022.0 |
| 20260503100106 | 8 | 319 | 1.6 | 4.8 | 0.00 | 0.00 | 0.00 | 80 | 1020.1 |
| 20260503081550 | 8 | 0 | 0.0 | 3.2 | 0.00 | 0.00 | 0.00 | 82 | 1019.2 |
| 20260503071600 | 9 | 296 | 1.6 | 4.8 | 0.00 | 0.00 | 0.00 | 80 | 1018.8 |
| 20260503054549 | 10 | 300 | 1.6 | 6.4 | 0.00 | 0.00 | 0.00 | 74 | 1018.7 |
| 20260503053050 | 10 | 331 | 3.2 | 6.4 | 0.00 | 0.00 | 0.00 | 73 | 1018.6 |
| 20260503051556 | 10 | 323 | 3.2 | 9.7 | 0.00 | 0.00 | 0.00 | 71 | 1018.5 |
| 20260503050053 | 11 | 339 | 3.2 | 6.4 | 0.00 | 0.00 | 0.00 | 69 | 1018.4 |
| 20260503044548 | 11 | 0 | 0.0 | 3.2 | 0.00 | 0.00 | 0.00 | 69 | 1018.2 |
| 20260503043054 | 11 | 0 | 0.0 | 4.8 | 0.00 | 0.00 | 0.00 | 68 | 1018.2 |